Starlink 31144

operational
NORAD ID: 58682 Int'l Des: 2023-211 Owner: SPXS Country: US Constellation: starlink
LEOCIRCULAR

About Starlink 31144

Description loading...

Live Position

Loading 3D Globe...

Upcoming Passes

Altitude History

Altitude vs Time

uPlot chart will show altitude changes over time

Two-Line Element Set

1 58682U 23211R 25260.24662305 -.00000647 00000-0 -13939-4 0 9999
2 58682 43.0049 344.3673 0003434 285.3416 74.7057 15.27569276 95941
Epoch: Sep 17, 2025 • Age: 41 hours

Current Status

Altitude 492.2 km
Velocity 7.62 km/s
Sub-Earth Point -38.71°S, 58.46°W
Launch Date Dec 29, 2023
Age 1.7 years
Type internet

Technical Details

Classification Payload
Mass 730.00 kg
Dry Mass 700.00 kg
Total Mass 730.00 kg
Length 0.30 m
Diameter 4.10 m
Span 29.00 m
Shape Box + pan
Manufacturer SPXS
Bus Type Starlink V2M
Phase Status In Orbit
Owner/State SPXS/US

Large Constellations

Loading constellations...